Back to catalog

SL-14 DEB

AlivePO
NORAD 45305·DEBRIS·🇷🇺 Russia

Launched Aug 15, 1991 from Plesetsk Cosmodrome

Loading…

Next Passes (next 24 hours)

TLE

FreshSource: Space-Track

Epoch: Sep 14, 2026, 03:11 UTC

1 45305U 91056AT  26257.13320986  .00001562  00000-0  31389-2 0  9992
2 45305  82.5643  49.1266 0020925  78.6243 281.7238 13.33583690317310

Track SL-14 DEB in real time with AllMySat

Download on the App Store